CW6538 Cattolica IT current weather conditions

sailwx.info

Wind from 194 at 3 knots gusting 6

Air temperature 17.8° C
Dewpoint 10.9° C

Last reported at 2017-May-28 22:04 UTC.
Time now 2017-May-28 22:25 UTC

Location: N 43°58' E 012°44'.
View on Google Maps.

See reports from other nearby stations

  
Tides and Currents Weather Stations Pressure Air Temp Water Temp Dewpoint Dewpoint Depression Visibility Wind Speed Wind Dir Waves Ship Positions
date/time (UTC)wind fromknots sea level pressurealtimeterstation pressurevisibilityair tempwater tempwave heightnotes
2017-May-28 22:09 188 2 gusting 6 17.2
2017-May-28 22:04 194 3 gusting 6 17.8
2017-May-28 21:59 186 4 gusting 5 17.8
2017-May-28 21:53 178 3 gusting 5 17.8
2017-May-28 21:49 178 1 gusting 4 17.8
2017-May-28 21:43 178 2 gusting 5 17.8
2017-May-28 21:39 178 2 gusting 5 18.3
2017-May-28 21:34 181 3 gusting 5 18.3
2017-May-28 21:29 182 2 gusting 4 18.9
2017-May-28 21:23 182 1 gusting 3 18.9
2017-May-28 21:19 182 18.9
2017-May-28 21:14 182 1 gusting 4 19.4
2017-May-28 21:09 182 1 gusting 5 19.4
2017-May-28 21:04 183 3 gusting 4 19.4
2017-May-28 20:58 185 2 gusting 3 20.0
2017-May-28 20:53 185 2 gusting 3 20.0
2017-May-28 20:49 185 1 gusting 3 20.0
2017-May-28 20:44 185 1 gusting 2 20.0
2017-May-28 20:38 185 1 20.0
2017-May-28 20:34 185 1 gusting 4 20.0
2017-May-28 20:29 185 1 gusting 4 20.0
2017-May-28 20:23 185 2 gusting 5 20.0
2017-May-28 20:19 180 3 gusting 5 20.6
2017-May-28 20:14 175 4 gusting 5 20.6
2017-May-28 20:08 160 2 gusting 5 20.6
2017-May-28 20:04 154 2 gusting 5 21.1
2017-May-28 19:59 146 1 gusting 4 21.1
2017-May-28 19:54 150 2 gusting 4 21.7
2017-May-28 19:49 150 2 gusting 4 21.7
2017-May-28 19:43 150 2 gusting 4 22.2
2017-May-28 19:38 150 1 gusting 4 22.2
2017-May-28 19:34 151 2 gusting 5 22.2
2017-May-28 19:29 157 3 gusting 5 22.8
2017-May-28 19:23 159 1 gusting 4 22.8
2017-May-28 19:19 163 1 gusting 4 23.3
2017-May-28 19:14 163 1 gusting 4 23.3
2017-May-28 19:09 167 23.9
2017-May-28 19:03 086 23.9
2017-May-28 18:59 086 24.4
2017-May-28 18:53 086 2 gusting 4 25.0
2017-May-28 18:48 086 25.0
2017-May-28 18:43 086 0 gusting 1 25.0
2017-May-28 18:39 086 25.0
2017-May-28 18:34 086 25.6
2017-May-28 18:28 086 25.6
2017-May-28 18:24 086 25.6
2017-May-28 18:19 086 25.6
2017-May-28 18:13 086 0 25.6
2017-May-28 18:09 086 25.6
2017-May-28 18:03 086 1 gusting 3 25.6
2017-May-28 17:59 086 26.1
2017-May-28 17:54 086 26.1
2017-May-28 17:48 086 2 gusting 5 26.1
2017-May-28 17:44 115 2 gusting 5 26.1
2017-May-28 17:38 101 3 gusting 5 26.1
2017-May-28 17:34 094 2 gusting 4 26.1
2017-May-28 17:29 092 2 gusting 5 26.7
2017-May-28 17:24 107 2 gusting 5 26.7
2017-May-28 17:19 104 3 gusting 5 26.7
2017-May-28 17:14 089 3 gusting 5 26.7
2017-May-28 17:09 112 2 gusting 6 26.7
2017-May-28 17:04 084 5 gusting 6 27.2
2017-May-28 16:58 074 4 gusting 6 27.8
2017-May-28 16:54 078 4 gusting 6 28.3
2017-May-28 16:49 028 3 gusting 6 28.3
2017-May-28 16:43 038 4 gusting 6 28.3
2017-May-28 16:39 038 4 gusting 6 28.3
2017-May-28 16:34 043 5 gusting 6 28.3
2017-May-28 16:28 049 4 gusting 6 28.3
2017-May-28 16:24 112 2 gusting 6 28.3
2017-May-28 16:19 043 4 gusting 6 28.3
2017-May-28 16:14 057 4 gusting 6 28.3
2017-May-28 16:09 044 4 gusting 6 28.3
2017-May-28 16:03 024 4 gusting 7 28.3
2017-May-28 15:59 052 5 gusting 7 27.8
2017-May-28 15:54 037 4 gusting 7 27.8
2017-May-28 15:44 049 6 gusting 9 27.8
2017-May-28 15:39 028 6 gusting 9 27.8
2017-May-28 15:34 053 5 gusting 8 27.8
2017-May-28 15:29 086 6 gusting 9 27.8
2017-May-28 15:23 041 6 gusting 9 27.8
2017-May-28 15:19 035 4 gusting 10 27.2
2017-May-28 15:13 034 7 gusting 10 27.2
2017-May-28 15:09 046 5 gusting 9 26.7
2017-May-28 15:03 037 5 gusting 9 26.1
2017-May-28 14:59 083 6 gusting 9 25.6
2017-May-28 14:54 068 6 gusting 10 25.6
2017-May-28 14:48 084 6 gusting 10 25.6
2017-May-28 14:44 069 7 gusting 11 26.1
2017-May-28 14:39 067 6 gusting 11 26.1
2017-May-28 14:33 013 6 gusting 10 26.1
2017-May-28 14:29 027 5 gusting 11 26.1
2017-May-28 14:24 088 6 gusting 11 26.7
2017-May-28 14:18 021 6 gusting 11 26.7
2017-May-28 14:14 081 8 gusting 11 26.7
2017-May-28 14:08 042 6 gusting 11 26.7
2017-May-28 14:04 056 5 gusting 9 26.7
2017-May-28 13:59 057 6 gusting 11 26.7
2017-May-28 13:54 015 7 gusting 12 26.7
2017-May-28 13:49 075 9 gusting 12 26.7
2017-May-28 13:44 044 5 gusting 12 26.7
2017-May-28 13:39 061 6 gusting 12 26.7
2017-May-28 13:33 058 7 gusting 12 26.7
2017-May-28 13:29 054 7 gusting 12 26.7
2017-May-28 13:24 012 8 gusting 12 27.2
2017-May-28 13:18 049 7 gusting 12 26.7
2017-May-28 13:14 028 7 gusting 12 26.7
2017-May-28 13:09 096 8 gusting 12 26.7
2017-May-28 13:03 061 7 gusting 11 26.7
2017-May-28 12:59 051 6 gusting 10 26.7
2017-May-28 12:53 032 6 gusting 13 26.7
2017-May-28 12:48 047 10 gusting 13 26.1
2017-May-28 12:44 060 7 gusting 12 26.7
2017-May-28 12:38 048 9 gusting 12 26.7
2017-May-28 12:34 053 7 gusting 12 26.1
2017-May-28 12:29 040 6 gusting 12 25.6
2017-May-28 12:24 049 7 gusting 12 25.0
2017-May-28 12:18 065 8 gusting 13 25.0
2017-May-28 12:14 038 8 gusting 13 26.1
2017-May-28 12:09 074 7 gusting 12 26.7
2017-May-28 12:03 077 6 gusting 12 26.7
2017-May-28 11:59 036 6 gusting 11 26.7
2017-May-28 11:53 026 7 gusting 12 26.1
2017-May-28 11:44 051 7 gusting 12 26.1
2017-May-28 11:39 078 7 gusting 12 26.1
2017-May-28 11:33 049 9 gusting 12 26.1
2017-May-28 11:29 053 6 gusting 12 26.1
2017-May-28 11:24 051 7 gusting 13 26.1
2017-May-28 11:19 055 7 gusting 13 26.1
2017-May-28 11:14 058 8 gusting 12 26.1
2017-May-28 11:08 029 8 gusting 11 26.1
2017-May-28 11:04 055 7 gusting 11 26.1
2017-May-28 10:59 037 7 gusting 12 26.1
2017-May-28 10:54 038 6 gusting 12 26.1
2017-May-28 10:49 072 6 gusting 11 26.1
2017-May-28 10:44 340 6 gusting 11 26.1
2017-May-28 10:38 013 7 gusting 11 26.1
2017-May-28 10:34 005 5 gusting 9 26.1
2017-May-28 10:29 028 6 gusting 11 25.6
2017-May-28 10:24 051 8 gusting 12 25.6
2017-May-28 10:18 053 8 gusting 11 25.6
2017-May-28 10:14 049 6 gusting 12 25.6
2017-May-28 10:09 059 6 gusting 12 25.0
2017-May-28 10:03 069 7 gusting 10 25.0
2017-May-28 09:59 017 6 gusting 10 25.0
2017-May-28 09:53 063 6 gusting 11 25.0
2017-May-28 09:49 064 6 gusting 11 25.0
2017-May-28 09:43 045 8 gusting 11 25.0
2017-May-28 09:39 061 6 gusting 9 25.0
2017-May-28 09:33 081 6 gusting 9 25.6
2017-May-28 09:29 053 5 gusting 8 25.0
2017-May-28 09:24 005 4 gusting 9 25.0
2017-May-28 09:19 020 6 25.0
2017-May-28 09:14 055 5 gusting 10 25.0
2017-May-28 09:09 042 5 gusting 10 24.4
2017-May-28 09:03 052 8 gusting 11 24.4
2017-May-28 08:59 057 7 gusting 11 25.0
2017-May-28 08:53 038 7 gusting 9 25.0
2017-May-28 08:49 030 6 gusting 9 25.6
2017-May-28 08:39 037 6 gusting 9 25.6
2017-May-28 08:34 014 5 gusting 7 25.6
2017-May-28 08:29 063 5 gusting 8 25.6
2017-May-28 08:23 047 6 gusting 8 25.6
2017-May-28 08:19 042 5 gusting 6 25.6
2017-May-28 08:13 055 6 gusting 6 25.6
2017-May-28 08:09 036 5 gusting 7 25.6
2017-May-28 08:03 017 5 gusting 7 25.6
2017-May-28 07:59 018 4 gusting 6 25.6
2017-May-28 07:49 046 3 gusting 6 25.0
2017-May-28 07:43 052 4 gusting 6 25.0
2017-May-28 07:39 005 3 gusting 6 24.4
2017-May-28 07:34 052 2 gusting 4 23.9
2017-May-28 07:29 052 2 gusting 6 23.3
2017-May-28 07:24 043 2 gusting 5 22.8
2017-May-28 07:19 184 22.8
2017-May-28 07:14 184 22.2
2017-May-28 07:09 184 21.7
2017-May-28 06:59 184 21.1
2017-May-28 06:49 184 20.0
2017-May-28 06:44 184 20.0
2017-May-28 06:39 184 19.4
2017-May-28 06:33 184 19.4
2017-May-28 06:24 184 0 18.9
2017-May-28 06:19 184 0 gusting 4 18.3
2017-May-28 06:14 198 18.3
2017-May-28 06:08 198 17.8
2017-May-28 06:04 198 17.8
2017-May-28 05:59 198 1 gusting 4 17.2
2017-May-28 05:54 198 1 gusting 4 16.7
2017-May-28 05:44 184 1 gusting 4 16.1
2017-May-28 05:39 184 3 gusting 5 16.1
2017-May-28 05:34 184 4 gusting 5 16.1
2017-May-28 05:24 189 2 gusting 5 15.6
2017-May-28 05:19 176 284 gusting 284 15.6
2017-May-28 05:14 195 2 gusting 5 15.0
2017-May-28 05:09 185 2 gusting 5 15.0
2017-May-28 05:04 186 3 gusting 6 15.0
2017-May-28 04:58 180 4 gusting 6 14.4
2017-May-28 04:54 188 4 gusting 6 14.4
2017-May-28 04:48 171 4 gusting 5 14.4
2017-May-28 04:44 171 3 gusting 5 14.4
2017-May-28 04:38 169 284 gusting 284 13.9
2017-May-28 04:34 170 3 gusting 5 13.9
2017-May-28 04:28 170 4 gusting 5 13.9
2017-May-28 04:24 180 3 gusting 5 13.9
2017-May-28 04:18 180 3 gusting 6 13.9
2017-May-28 04:14 161 3 gusting 6 13.9
2017-May-28 04:09 171 3 gusting 6 13.9
2017-May-28 04:03 171 4 gusting 6 13.9
2017-May-28 03:54 188 3 gusting 4 13.9
2017-May-28 03:49 188 2 gusting 5 13.9
2017-May-28 03:43 188 4 gusting 5 13.9
2017-May-28 03:39 188 3 gusting 5 13.9
2017-May-28 03:34 189 2 gusting 5 13.9
2017-May-28 03:29 189 2 gusting 5 13.9
2017-May-28 03:18 189 2 gusting 4 13.9
2017-May-28 03:14 189 3 gusting 4 13.9
2017-May-28 03:08 190 3 gusting 6 13.9
2017-May-28 03:04 200 4 gusting 6 13.9
2017-May-28 02:59 183 4 gusting 6 13.9
2017-May-28 02:54 190 5 gusting 6 13.9
2017-May-28 02:49 168 2 gusting 5 13.9
2017-May-28 02:43 168 3 gusting 6 13.9
2017-May-28 02:39 169 4 gusting 6 13.9
2017-May-28 02:33 173 4 gusting 6 13.9
2017-May-28 02:28 173 4 gusting 6 14.4
2017-May-28 02:24 185 4 gusting 5 14.4
2017-May-28 02:19 185 3 gusting 5 14.4
2017-May-28 02:13 185 3 gusting 6 14.4
2017-May-28 02:09 185 4 gusting 5 14.4
2017-May-28 02:03 185 3 gusting 5 14.4
2017-May-28 01:58 186 3 gusting 5 14.4
2017-May-28 01:54 186 3 gusting 5 14.4
2017-May-28 01:48 188 3 gusting 5 14.4
2017-May-28 01:44 188 2 gusting 5 14.4
2017-May-28 01:39 188 2 gusting 5 14.4
2017-May-28 01:33 187 4 gusting 5 14.4
2017-May-28 01:29 184 3 gusting 5 15.0
2017-May-28 01:23 184 4 gusting 5 15.0
2017-May-28 01:19 184 3 gusting 4 15.0
2017-May-28 01:14 184 2 gusting 4 15.0
2017-May-28 01:08 184 2 gusting 4 15.0
2017-May-28 01:04 184 2 gusting 4 15.0
2017-May-28 00:59 184 3 gusting 5 15.0
2017-May-28 00:54 184 3 gusting 5 15.0
2017-May-28 00:48 184 3 gusting 6 15.0
2017-May-28 00:44 186 4 gusting 6 15.0
2017-May-28 00:39 187 3 gusting 5 15.0
2017-May-28 00:33 187 3 gusting 5 15.0
2017-May-28 00:29 187 3 15.6
2017-May-28 00:23 187 3 gusting 4 15.6
2017-May-28 00:19 187 3 gusting 4 15.6
2017-May-28 00:13 187 3 gusting 4 15.6
2017-May-28 00:09 187 3 gusting 4 15.6
2017-May-28 00:04 187 3 gusting 4 15.6
2017-May-27 23:58 187 2 gusting 5 15.6
2017-May-27 23:53 190 4 gusting 6 16.1
2017-May-27 23:49 192 3 gusting 6 16.1
2017-May-27 23:44 192 3 gusting 5 16.1
2017-May-27 23:39 193 2 gusting 4 16.7
2017-May-27 23:28 193 2 gusting 5 16.7
2017-May-27 23:24 193 4 gusting 6 16.7
2017-May-27 23:14 192 3 gusting 5 16.7
2017-May-27 23:03 182 3 gusting 5 16.7
2017-May-27 22:54 182 3 gusting 5 16.7
2017-May-27 22:48 182 2 gusting 5 16.7
2017-May-27 22:44 182 2 gusting 4 16.7
2017-May-27 22:39 182 1 gusting 4 16.7
2017-May-27 22:34 182 1 gusting 4 16.7
2017-May-27 22:28 182 2 gusting 4 16.7
2017-May-27 22:24 182 2 gusting 4 16.7
2017-May-27 22:19 182 3 gusting 4 16.7
2017-May-27 22:13 182 1 gusting 5 16.7
2017-May-27 22:04 179 3 gusting 4 17.2
2017-May-27 21:59 178 3 gusting 4 17.2
2017-May-27 21:54 178 2 gusting 3 17.2
2017-May-27 21:49 178 1 gusting 4 17.2
2017-May-27 21:44 178 1 gusting 4 17.8
2017-May-27 21:39 178 2 gusting 4 17.8
2017-May-27 21:34 178 1 gusting 3 17.8
2017-May-27 21:29 178 0 gusting 4 17.8
2017-May-27 21:23 178 1 gusting 4 17.8
2017-May-27 21:19 178 2 gusting 4 17.8
2017-May-27 21:14 178 1 gusting 4 18.3
2017-May-27 21:09 178 1 gusting 4 18.3
2017-May-27 21:04 178 284 gusting 284 18.3
2017-May-27 20:59 178 4 gusting 5 18.3
2017-May-27 20:54 178 2 gusting 5 18.3
2017-May-27 20:49 176 3 gusting 5 18.9
2017-May-27 20:39 160 1 gusting 4 18.9
2017-May-27 20:34 160 2 gusting 4 18.9
2017-May-27 20:28 160 1 gusting 5 18.9
2017-May-27 20:24 160 2 gusting 5 19.4
2017-May-27 20:19 184 2 gusting 4 19.4
2017-May-27 20:13 185 2 gusting 5 19.4
2017-May-27 20:09 175 2 gusting 5 20.0
2017-May-27 20:04 159 2 gusting 4 20.0
2017-May-27 19:59 159 1 gusting 4 20.6
2017-May-27 19:54 159 3 gusting 4 20.6
2017-May-27 19:48 159 1 gusting 4 20.6
2017-May-27 19:44 159 1 gusting 4 21.1
2017-May-27 19:38 159 1 gusting 4 21.1
2017-May-27 19:34 159 1 gusting 4 21.7
2017-May-27 19:29 159 3 gusting 4 21.7
2017-May-27 19:23 150 2 gusting 4 22.2
2017-May-27 19:18 130 1 gusting 3 22.8
2017-May-27 19:14 129 23.3
2017-May-27 19:08 042 23.3
2017-May-27 19:04 042 23.9
2017-May-27 18:59 042 1 gusting 4 23.9
2017-May-27 18:54 042 24.4
2017-May-27 18:48 042 25.0
2017-May-27 18:44 042 25.0
2017-May-27 18:39 042 25.6
2017-May-27 18:33 042 25.6
2017-May-27 18:29 042 26.1
2017-May-27 18:24 042 26.1
2017-May-27 18:18 042 26.1
2017-May-27 18:14 042 26.1
2017-May-27 18:08 042 26.1
2017-May-27 18:03 042 26.1
2017-May-27 17:59 042 1 gusting 3 26.1
2017-May-27 17:53 042 0 gusting 3 26.1
2017-May-27 17:48 042 26.1
2017-May-27 17:44 042 1 gusting 3 26.1
2017-May-27 17:38 042 26.1
2017-May-27 17:33 042 1 gusting 4 26.1
2017-May-27 17:24 042 1 gusting 6 26.1
2017-May-27 17:19 042 4 gusting 6 26.1
2017-May-27 17:13 042 3 gusting 6 26.1
2017-May-27 17:09 042 4 gusting 6 26.1
2017-May-27 17:04 022 3 gusting 6 26.1
2017-May-27 16:58 064 4 gusting 6 26.1
2017-May-27 16:54 040 3 gusting 6 26.7
2017-May-27 16:49 038 4 gusting 6 26.7
2017-May-27 16:44 040 3 gusting 7 26.7
2017-May-27 16:38 035 4 gusting 7 26.7
2017-May-27 16:34 066 5 gusting 7 27.2
2017-May-27 16:28 032 4 gusting 6 27.2
2017-May-27 16:24 051 4 gusting 6 27.2
2017-May-27 16:19 022 4 gusting 6 27.2
2017-May-27 16:14 014 3 gusting 6 27.2
2017-May-27 16:09 041 4 gusting 7 27.2
2017-May-27 16:04 030 4 gusting 7 27.2
2017-May-27 15:59 053 5 gusting 7 27.2
2017-May-27 15:54 044 5 gusting 8 27.2
2017-May-27 15:49 039 6 gusting 8 27.2
2017-May-27 15:44 058 4 gusting 6 27.2
2017-May-27 15:39 029 4 gusting 6 27.2
2017-May-27 15:33 045 4 gusting 7 26.7
2017-May-27 15:29 036 4 gusting 6 26.7
2017-May-27 15:19 041 5 gusting 7 26.7
2017-May-27 15:13 053 4 gusting 6 26.7
2017-May-27 15:09 015 5 gusting 7 26.7
2017-May-27 15:04 071 4 gusting 8 26.7
2017-May-27 14:58 052 5 gusting 7 26.7
2017-May-27 14:54 067 6 gusting 7 26.7
2017-May-27 14:49 080 4 gusting 7 26.7
2017-May-27 14:43 040 5 gusting 7 27.2
2017-May-27 14:34 069 5 gusting 6 26.7
2017-May-27 14:29 050 4 gusting 7 26.7
2017-May-27 14:23 013 3 gusting 7 26.7
2017-May-27 14:18 057 5 gusting 7 26.7
2017-May-27 14:14 022 4 gusting 8 26.7
2017-May-27 14:03 061 4 gusting 7 27.2
2017-May-27 13:59 015 5 gusting 7 27.2
2017-May-27 13:54 042 5 gusting 7 26.7
2017-May-27 13:48 044 5 gusting 7 26.7
2017-May-27 13:43 029 4 gusting 7 26.7
2017-May-27 13:39 013 5 gusting 7 26.7
2017-May-27 13:33 055 6 gusting 7 26.7
2017-May-27 13:29 036 5 gusting 7 26.7
2017-May-27 13:23 053 5 gusting 7 26.1
2017-May-27 13:19 036 5 gusting 8 26.1
2017-May-27 13:13 015 6 gusting 8 26.1
2017-May-27 13:09 360 5 gusting 7 26.1
2017-May-27 13:04 070 4 gusting 7 26.1
2017-May-27 12:58 020 4 gusting 7 25.6
2017-May-27 12:54 005 5 gusting 7 25.6
2017-May-27 12:49 022 5 25.6
2017-May-27 12:43 010 5 gusting 8 25.6
2017-May-27 12:39 355 4 gusting 6 25.6
2017-May-27 12:33 030 4 gusting 7 25.6
2017-May-27 12:29 051 3 gusting 8 25.0
2017-May-27 12:18 034 6 gusting 8 25.0
2017-May-27 12:14 360 4 gusting 7 25.0
2017-May-27 12:08 360 4 gusting 8 25.0
2017-May-27 12:04 005 6 gusting 8 25.0
2017-May-27 11:58 005 6 gusting 8 25.0
2017-May-27 11:54 005 6 gusting 8 25.0
2017-May-27 11:49 019 5 gusting 8 25.0
2017-May-27 11:43 013 6 gusting 8 25.6
2017-May-27 11:39 350 6 gusting 8 25.6
2017-May-27 11:34 009 4 gusting 8 25.6
2017-May-27 11:28 005 4 gusting 8 25.6
2017-May-27 11:24 360 5 gusting 8 25.6
2017-May-27 11:14 016 5 gusting 7 25.0
2017-May-27 11:08 345 5 gusting 6 25.0
2017-May-27 11:04 355 5 gusting 6 25.0
2017-May-27 10:59 005 4 gusting 7 25.0
2017-May-27 10:53 005 4 gusting 8 25.0
2017-May-27 10:49 018 2 gusting 8 24.4
2017-May-27 10:43 323 6 gusting 8 24.4
2017-May-27 10:39 005 5 gusting 6 24.4
2017-May-27 10:33 029 3 gusting 7 23.9
2017-May-27 10:29 355 5 gusting 7 23.9
2017-May-27 10:24 033 5 gusting 6 24.4
2017-May-27 10:19 017 4 gusting 7 23.9
2017-May-27 10:13 005 3 gusting 8 23.3
2017-May-27 10:09 022 6 gusting 8 23.3
2017-May-27 10:04 313 4 gusting 6 23.3
2017-May-27 09:59 012 3 gusting 6 23.3
2017-May-27 09:53 303 5 gusting 7 23.3
2017-May-27 09:49 344 6 gusting 7 22.8
2017-May-27 09:44 009 3 gusting 6 22.8
2017-May-27 09:39 037 2 gusting 6 22.2
2017-May-27 09:34 304 4 gusting 6 22.2
2017-May-27 09:28 005 4 gusting 6 22.2
2017-May-27 09:19 009 4 gusting 7 21.7
2017-May-27 09:14 016 6 gusting 7 21.7
2017-May-27 09:08 312 4 gusting 6 22.2
2017-May-27 09:04 330 4 gusting 7 22.2
2017-May-27 08:58 355 4 gusting 7 22.2
2017-May-27 08:53 339 6 gusting 7 22.2
2017-May-27 08:49 315 4 gusting 8 22.2
2017-May-27 08:43 360 6 gusting 8 22.2
2017-May-27 08:39 350 5 gusting 8 22.2
2017-May-27 08:33 341 4 21.7
2017-May-27 08:29 294 5 gusting 6 22.2
2017-May-27 08:23 355 4 gusting 7 22.2
2017-May-27 08:19 355 4 gusting 7 22.2
2017-May-27 08:09 300 2 gusting 7 22.8
2017-May-27 08:03 011 5 gusting 8 22.8
2017-May-27 07:59 009 6 gusting 8 22.8
2017-May-27 07:53 018 6 gusting 8 23.3
2017-May-27 07:49 026 6 gusting 8 23.3
2017-May-27 07:44 030 5 gusting 8 23.3
2017-May-27 07:29 023 4 gusting 6 22.2
2017-May-27 07:23 005 4 gusting 6 21.7
2017-May-27 07:19 015 3 gusting 6 21.1
2017-May-27 07:14 355 4 gusting 5 20.6
2017-May-27 07:08 165 20.6
2017-May-27 07:04 165 20.0
2017-May-27 06:59 165 20.0
2017-May-27 06:49 165 19.4
2017-May-27 06:43 165 18.9
2017-May-27 06:38 165 1 gusting 3 18.9
2017-May-27 06:29 165 17.8
2017-May-27 06:19 165 17.2
2017-May-27 06:13 165 16.7
2017-May-27 06:09 165 16.7
2017-May-27 06:03 159 1 gusting 4 16.1
2017-May-27 05:59 198 1 gusting 4 16.1
2017-May-27 05:53 204 0 gusting 5 15.6
2017-May-27 05:49 204 2 gusting 6 15.6
2017-May-27 05:43 174 3 gusting 5 15.0
2017-May-27 05:39 178 3 gusting 6 15.0
2017-May-27 05:33 184 2 gusting 5 14.4
2017-May-27 05:29 180 3 gusting 6 14.4
2017-May-27 05:23 184 3 gusting 6 13.9
2017-May-27 05:19 167 5 gusting 6 13.9
2017-May-27 05:13 180 2 gusting 5 13.3
2017-May-27 05:09 180 3 13.3
2017-May-27 05:04 184 3 gusting 5 12.8
2017-May-27 04:58 183 2 gusting 5 12.8
2017-May-27 04:54 183 3 gusting 5 12.8
2017-May-27 04:49 183 1 gusting 5 12.8
2017-May-27 04:44 186 3 gusting 6 12.2
2017-May-27 04:38 188 4 gusting 6 12.2
2017-May-27 04:34 191 3 gusting 5 12.2
2017-May-27 04:28 195 2 gusting 5 12.2
2017-May-27 04:24 196 3 gusting 6 12.2
2017-May-27 04:18 196 4 gusting 6 12.2
2017-May-27 04:14 196 4 gusting 6 11.7
2017-May-27 04:08 196 4 gusting 6 11.7
2017-May-27 04:04 195 3 gusting 6 11.7
2017-May-27 03:58 181 4 gusting 6 11.7
2017-May-27 03:54 187 3 gusting 6 11.7
2017-May-27 03:48 186 2 gusting 6 11.7
2017-May-27 03:44 194 4 gusting 6 11.7
2017-May-27 03:38 178 4 gusting 6 11.7
2017-May-27 03:33 178 4 gusting 6 11.7
2017-May-27 03:28 182 4 gusting 5 11.7
2017-May-27 03:19 194 2 gusting 5 11.7
2017-May-27 03:14 196 3 gusting 5 11.7
2017-May-27 03:09 196 4 gusting 5 11.7
2017-May-27 03:03 196 3 gusting 4 11.7
2017-May-27 02:59 196 2 gusting 6 11.7
2017-May-27 02:48 198 4 gusting 6 12.2
2017-May-27 02:44 180 4 gusting 5 12.2
2017-May-27 02:38 174 4 gusting 5 12.2
2017-May-27 02:33 174 4 gusting 6 12.2
2017-May-27 02:29 178 4 gusting 6 12.2
2017-May-27 02:23 178 4 gusting 5 12.2
2017-May-27 02:19 178 4 gusting 5 12.2
2017-May-27 02:14 178 3 gusting 5 12.2
2017-May-27 02:08 178 3 gusting 6 12.2
2017-May-27 02:04 178 4 gusting 6 12.2
2017-May-27 01:58 184 4 gusting 6 12.2
2017-May-27 01:54 181 4 gusting 5 12.8
2017-May-27 01:48 190 4 gusting 5 12.8
2017-May-27 01:43 190 2 gusting 4 12.8
2017-May-27 01:34 190 2 gusting 5 12.8
2017-May-27 01:28 190 3 gusting 6 12.8
2017-May-27 01:24 203 4 gusting 6 12.8
2017-May-27 01:19 188 2 gusting 5 12.8
2017-May-27 01:14 188 3 gusting 5 12.8
2017-May-27 01:09 196 2 gusting 6 12.8
2017-May-27 01:03 212 4 gusting 6 12.8
2017-May-27 00:59 209 3 gusting 4 12.8
2017-May-27 00:49 209 3 gusting 5 12.8
2017-May-27 00:43 211 4 gusting 6 12.8
2017-May-27 00:38 188 3 gusting 6 12.8
2017-May-27 00:34 182 4 gusting 6 12.8
2017-May-27 00:28 174 284 gusting 284 12.8
2017-May-27 00:24 174 4 gusting 5 13.3
2017-May-27 00:18 175 3 gusting 5 13.3
2017-May-27 00:08 180 3 gusting 4 13.3
2017-May-27 00:04 180 3 gusting 5 13.9
2017-May-26 23:59 180 2 gusting 5 13.9
2017-May-26 23:53 180 3 gusting 4 13.9
2017-May-26 23:49 180 1 gusting 4 13.9
2017-May-26 23:43 180 2 gusting 5 13.9
2017-May-26 23:39 178 3 gusting 5 13.9
2017-May-26 23:33 178 3 gusting 5 13.9
2017-May-26 23:29 178 4 gusting 5 13.9
2017-May-26 23:23 176 3 gusting 5 13.9
2017-May-26 23:19 186 3 gusting 5 13.9
2017-May-26 23:13 186 3 gusting 5 13.9
2017-May-26 23:09 186 3 gusting 4 13.9
2017-May-26 23:03 186 3 gusting 4 13.9
2017-May-26 22:58 186 2 gusting 5 14.4
2017-May-26 22:54 186 2 gusting 5 14.4
2017-May-26 22:48 186 4 gusting 5 14.4
2017-May-26 22:44 186 3 gusting 5 14.4
2017-May-26 22:39 186 2 gusting 4 14.4
2017-May-26 22:33 186 1 gusting 4 14.4
2017-May-26 22:29 186 2 gusting 6 14.4
2017-May-26 22:23 186 4 gusting 6 14.4
2017-May-26 22:19 186 1 gusting 3 14.4
2017-May-26 22:13 186 1 gusting 4 14.4
2017-May-26 22:09 186 2 gusting 4 15.0
2017-May-26 22:03 186 1 gusting 4 15.0